Location: Newark
(37.9800°N, 91.3000°W)
Time: 01:29:52
(UTC+00:00)

NOAA 19 - Pass Details

Date: 08 December 2019
Orbit: 840 x 862 km, 99.2° (Epoch: 23 January)

Event Time Altitude Azimuth Distance (km) Brightness Sun altitude
Rises 10:12:59 0° 40° (NE) 3,437 8.8 -33.8°
Reaches altitude 10° 10:17:55 10° 79° (ENE) 2,487 8.4 -32.8°
Maximum altitude 10:18:57 11° 90° (E) 2,448 8.4 -32.6°
Drops below altitude 10° 10:20:00 10° 101° (E) 2,482 8.5 -32.4°
Sets 10:24:50 0° 139° (SE) 3,403 9.0 -31.5°
